TAM2202 SBCG-SBSP

Flight info

Callsign TAM2202
Flight time 1h 24m
Altitude 37000
Route BRAKE DCT ASEPO UM411 UTLOT
Aircraft A20N/M-SDE2E3FGHIRWXY/LB1

Departure

Time 2026-04-25 17:11
Airport Campo Grande Airport (SBCG)

Arrival

Time 2026-04-25 18:36
Airport Congonhas–Deputado Freitas Nobre Airport (SBSP)
Time Latitude Longitude Altitude Speed Heading
2026-04-25 16:40 -20.45798 -54.66971 1841 ft 0 kts 354°
2026-04-25 16:59 -20.45800 -54.66971 1841 ft 1 kts 354°
2026-04-25 17:00 -20.45815 -54.66969 1841 ft 2 kts 354°
2026-04-25 17:00 -20.45830 -54.66967 1841 ft 2 kts 354°
2026-04-25 17:00 -20.45844 -54.66965 1841 ft 1 kts 11°
2026-04-25 17:00 -20.45856 -54.66974 1841 ft 2 kts 65°
2026-04-25 17:01 -20.45858 -54.66986 1841 ft 1 kts 94°
2026-04-25 17:01 -20.45857 -54.66992 1841 ft 1 kts 84°
2026-04-25 17:01 -20.45857 -54.66993 1841 ft 0 kts 84°
2026-04-25 17:04 -20.45857 -54.66988 1841 ft 1 kts 83°
2026-04-25 17:04 -20.45855 -54.66974 1841 ft 2 kts 83°
2026-04-25 17:05 -20.45853 -54.66953 1841 ft 3 kts 83°
2026-04-25 17:05 -20.45846 -54.66885 1841 ft 5 kts 84°
2026-04-25 17:05 -20.45842 -54.66841 1841 ft 6 kts 84°
2026-04-25 17:06 -20.45837 -54.66790 1841 ft 7 kts 84°
2026-04-25 17:06 -20.45836 -54.66739 1841 ft 7 kts 111°
2026-04-25 17:06 -20.45879 -54.66708 1841 ft 8 kts 167°
2026-04-25 17:06 -20.45935 -54.66689 1841 ft 8 kts 159°
2026-04-25 17:07 -20.45996 -54.66664 1842 ft 9 kts 159°
2026-04-25 17:07 -20.46024 -54.66652 1842 ft 0 kts 158°
2026-04-25 17:07 -20.46025 -54.66652 1842 ft 0 kts 158°
2026-04-25 17:07 -20.46033 -54.66649 1842 ft 1 kts 158°
2026-04-25 17:08 -20.46049 -54.66642 1842 ft 3 kts 158°
2026-04-25 17:08 -20.46072 -54.66632 1842 ft 4 kts 158°
2026-04-25 17:08 -20.46103 -54.66619 1842 ft 5 kts 159°
2026-04-25 17:08 -20.46141 -54.66603 1842 ft 6 kts 159°
2026-04-25 17:09 -20.46186 -54.66611 1842 ft 7 kts 213°
2026-04-25 17:09 -20.46202 -54.66625 1842 ft 0 kts 221°
2026-04-25 17:10 -20.46203 -54.66626 1842 ft 3 kts 221°
2026-04-25 17:10 -20.46393 -54.66808 1842 ft 76 kts 223°
2026-04-25 17:11 -20.46966 -54.67359 1842 ft 144 kts 223°
2026-04-25 17:11 -20.47667 -54.68050 2045 ft 168 kts 225°
2026-04-25 17:11 -20.48547 -54.68938 2541 ft 179 kts 224°
2026-04-25 17:11 -20.49519 -54.69868 3063 ft 194 kts 224°
2026-04-25 17:12 -20.50550 -54.70847 3635 ft 207 kts 224°
2026-04-25 17:12 -20.51675 -54.71919 4138 ft 222 kts 222°
2026-04-25 17:12 -20.53083 -54.72686 4412 ft 241 kts 191°
2026-04-25 17:12 -20.54819 -54.72503 4695 ft 261 kts 155°
2026-04-25 17:13 -20.56238 -54.71267 5123 ft 273 kts 121°
2026-04-25 17:13 -20.56724 -54.70031 5442 ft 278 kts 98°
2026-04-25 17:13 -20.56681 -54.67260 6284 ft 284 kts 89°
2026-04-25 17:13 -20.57121 -54.65223 6740 ft 288 kts 118°
2026-04-25 17:14 -20.58336 -54.63509 6986 ft 290 kts 133°
2026-04-25 17:14 -20.59759 -54.61993 6997 ft 290 kts 136°
2026-04-25 17:14 -20.61202 -54.60468 7002 ft 290 kts 134°
2026-04-25 17:14 -20.62611 -54.58911 7001 ft 290 kts 132°
2026-04-25 17:15 -20.63711 -54.57117 7153 ft 297 kts 107°
2026-04-25 17:15 -20.63964 -54.54937 7964 ft 294 kts 88°
2026-04-25 17:15 -20.63891 -54.52776 8793 ft 294 kts 87°
2026-04-25 17:15 -20.63814 -54.50603 9522 ft 298 kts 87°
2026-04-25 17:16 -20.63744 -54.48396 10250 ft 301 kts 87°
2026-04-25 17:16 -20.63677 -54.46113 10745 ft 314 kts 87°
2026-04-25 17:16 -20.63611 -54.43730 11134 ft 329 kts 87°
2026-04-25 17:16 -20.63547 -54.41273 11745 ft 334 kts 87°
2026-04-25 17:17 -20.63483 -54.38800 12426 ft 337 kts 87°
2026-04-25 17:17 -20.63420 -54.36324 13072 ft 339 kts 87°
2026-04-25 17:17 -20.63356 -54.33798 13691 ft 343 kts 87°
2026-04-25 17:17 -20.63289 -54.31210 14292 ft 347 kts 87°
2026-04-25 17:18 -20.63224 -54.28657 14863 ft 351 kts 87°
2026-04-25 17:18 -20.63156 -54.26036 15429 ft 354 kts 87°
2026-04-25 17:18 -20.63089 -54.23415 15982 ft 358 kts 87°
2026-04-25 17:18 -20.63019 -54.20735 16521 ft 362 kts 87°
2026-04-25 17:19 -20.62949 -54.18048 17048 ft 365 kts 87°
2026-04-25 17:19 -20.62877 -54.15346 17550 ft 369 kts 87°
2026-04-25 17:19 -20.62803 -54.12605 18047 ft 373 kts 87°
2026-04-25 17:19 -20.62728 -54.09823 18540 ft 376 kts 87°
2026-04-25 17:20 -20.62653 -54.07035 19020 ft 379 kts 88°
2026-04-25 17:20 -20.62576 -54.04212 19493 ft 382 kts 88°
2026-04-25 17:20 -20.62501 -54.01379 19937 ft 386 kts 89°
2026-04-25 17:20 -20.62565 -53.98506 20385 ft 389 kts 94°
2026-04-25 17:21 -20.62879 -53.95648 20822 ft 392 kts 100°
2026-04-25 17:21 -20.63407 -53.92797 21254 ft 394 kts 102°
2026-04-25 17:21 -20.63991 -53.89925 21684 ft 397 kts 103°
2026-04-25 17:21 -20.64585 -53.87039 22092 ft 400 kts 103°
2026-04-25 17:22 -20.65174 -53.84162 22523 ft 402 kts 103°
2026-04-25 17:22 -20.65578 -53.82185 22811 ft 404 kts 103°
2026-04-25 17:22 -20.66370 -53.78279 23370 ft 408 kts 103°
2026-04-25 17:22 -20.66969 -53.75310 23787 ft 411 kts 103°
2026-04-25 17:23 -20.67571 -53.72313 24188 ft 414 kts 102°
2026-04-25 17:23 -20.68169 -53.69332 24588 ft 417 kts 102°
2026-04-25 17:23 -20.68783 -53.66273 24998 ft 419 kts 102°
2026-04-25 17:23 -20.69391 -53.63231 25388 ft 422 kts 102°
2026-04-25 17:24 -20.70000 -53.60185 25764 ft 425 kts 102°
2026-04-25 17:24 -20.70616 -53.57099 26133 ft 428 kts 102°
2026-04-25 17:24 -20.71243 -53.53952 26521 ft 430 kts 102°
2026-04-25 17:24 -20.71862 -53.50845 26893 ft 432 kts 102°
2026-04-25 17:25 -20.72487 -53.47701 27240 ft 435 kts 101°
2026-04-25 17:25 -20.73117 -53.44532 27602 ft 438 kts 101°
2026-04-25 17:25 -20.73746 -53.41359 27951 ft 440 kts 101°
2026-04-25 17:25 -20.74385 -53.38134 28294 ft 443 kts 101°
2026-04-25 17:26 -20.75020 -53.34929 28627 ft 445 kts 101°
2026-04-25 17:26 -20.75664 -53.31669 28949 ft 448 kts 101°
2026-04-25 17:26 -20.76309 -53.28393 29277 ft 451 kts 101°
2026-04-25 17:26 -20.76951 -53.25131 29622 ft 452 kts 101°
2026-04-25 17:27 -20.77602 -53.21825 29959 ft 454 kts 101°
2026-04-25 17:27 -20.78255 -53.18515 30280 ft 457 kts 101°
2026-04-25 17:27 -20.78900 -53.15231 30581 ft 459 kts 101°
2026-04-25 17:27 -20.79344 -53.12975 30791 ft 460 kts 101°
2026-04-25 17:28 -20.80220 -53.08526 31316 ft 460 kts 101°
2026-04-25 17:28 -20.80875 -53.05192 31771 ft 458 kts 101°
2026-04-25 17:28 -20.81528 -53.01873 32219 ft 456 kts 101°
2026-04-25 17:28 -20.82181 -52.98545 32639 ft 455 kts 101°
2026-04-25 17:29 -20.82822 -52.95274 33041 ft 454 kts 101°
2026-04-25 17:29 -20.83471 -52.91950 33440 ft 453 kts 101°
2026-04-25 17:29 -20.84114 -52.88659 33826 ft 452 kts 102°
2026-04-25 17:29 -20.84850 -52.85433 34166 ft 452 kts 105°
2026-04-25 17:30 -20.85774 -52.82217 34523 ft 451 kts 109°
2026-04-25 17:30 -20.86835 -52.79068 34874 ft 451 kts 110°
2026-04-25 17:30 -20.87924 -52.75933 35198 ft 450 kts 110°
2026-04-25 17:30 -20.89025 -52.72778 35475 ft 450 kts 110°
2026-04-25 17:31 -20.90118 -52.69638 35700 ft 451 kts 110°
2026-04-25 17:31 -20.91200 -52.66516 35885 ft 453 kts 111°
2026-04-25 17:31 -20.92301 -52.63335 36080 ft 454 kts 110°
2026-04-25 17:31 -20.93384 -52.60198 36272 ft 456 kts 111°
2026-04-25 17:32 -20.94486 -52.57005 36447 ft 457 kts 110°
2026-04-25 17:32 -20.95577 -52.53837 36617 ft 458 kts 110°
2026-04-25 17:32 -20.96688 -52.50605 36774 ft 459 kts 111°
2026-04-25 17:32 -20.97782 -52.47420 36918 ft 461 kts 111°
2026-04-25 17:33 -20.99996 -52.40982 36926 ft 460 kts 111°
2026-04-25 17:33 -21.02192 -52.34581 36927 ft 461 kts 111°
2026-04-25 17:34 -21.04393 -52.28133 36928 ft 461 kts 111°
2026-04-25 17:34 -21.06592 -52.21699 36925 ft 461 kts 111°
2026-04-25 17:35 -21.08798 -52.15238 36925 ft 463 kts 110°
2026-04-25 17:35 -21.11000 -52.08778 36924 ft 462 kts 111°
2026-04-25 17:36 -21.13232 -52.02300 36921 ft 461 kts 111°
2026-04-25 17:36 -21.15432 -51.95865 36920 ft 462 kts 111°
2026-04-25 17:37 -21.17638 -51.89384 36915 ft 463 kts 111°
2026-04-25 17:37 -21.19834 -51.82909 36917 ft 463 kts 111°
2026-04-25 17:38 -21.21666 -51.77503 36920 ft 463 kts 111°
2026-04-25 17:38 -21.24219 -51.69952 36919 ft 463 kts 111°
2026-04-25 17:39 -21.26409 -51.63467 36921 ft 463 kts 111°
2026-04-25 17:39 -21.28593 -51.56987 36924 ft 464 kts 111°
2026-04-25 17:40 -21.30783 -51.50481 36942 ft 464 kts 110°
2026-04-25 17:40 -21.32969 -51.43978 36932 ft 464 kts 110°
2026-04-25 17:41 -21.35147 -51.37491 36947 ft 463 kts 110°
2026-04-25 17:41 -21.37326 -51.30969 36945 ft 464 kts 110°
2026-04-25 17:42 -21.39493 -51.24468 36948 ft 464 kts 110°
2026-04-25 17:42 -21.41675 -51.17937 36953 ft 464 kts 110°
2026-04-25 17:43 -21.43841 -51.11453 36953 ft 464 kts 110°
2026-04-25 17:43 -21.46013 -51.04940 36950 ft 464 kts 110°
2026-04-25 17:44 -21.48183 -50.98417 36943 ft 464 kts 110°
2026-04-25 17:44 -21.50354 -50.91866 36945 ft 464 kts 110°
2026-04-25 17:45 -21.52145 -50.86453 36943 ft 465 kts 110°
2026-04-25 17:45 -21.54675 -50.78799 36943 ft 465 kts 110°
2026-04-25 17:46 -21.56832 -50.72262 36950 ft 465 kts 110°
2026-04-25 17:46 -21.58982 -50.65736 36954 ft 465 kts 110°
2026-04-25 17:47 -21.61140 -50.59177 36956 ft 465 kts 110°
2026-04-25 17:47 -21.63293 -50.52629 36958 ft 465 kts 110°
2026-04-25 17:48 -21.66506 -50.42828 36962 ft 465 kts 110°
2026-04-25 17:49 -21.68675 -50.36249 36965 ft 465 kts 110°
2026-04-25 17:49 -21.70829 -50.29702 36967 ft 465 kts 110°
2026-04-25 17:50 -21.72981 -50.23146 36967 ft 465 kts 110°
2026-04-25 17:50 -21.75139 -50.16582 36970 ft 465 kts 110°
2026-04-25 17:51 -21.77281 -50.10045 36967 ft 465 kts 110°
2026-04-25 17:51 -21.79427 -50.03457 36977 ft 466 kts 110°
2026-04-25 17:52 -21.81566 -49.96886 36980 ft 466 kts 110°
2026-04-25 17:52 -21.83693 -49.90346 36980 ft 466 kts 110°
2026-04-25 17:53 -21.85830 -49.83774 36984 ft 465 kts 110°
2026-04-25 17:53 -21.87961 -49.77206 36982 ft 465 kts 110°
2026-04-25 17:54 -21.90090 -49.70633 36988 ft 466 kts 110°
2026-04-25 17:54 -21.92226 -49.64037 36987 ft 466 kts 110°
2026-04-25 17:55 -21.94346 -49.57471 36987 ft 466 kts 110°
2026-04-25 17:55 -21.96456 -49.50883 36993 ft 467 kts 110°
2026-04-25 17:56 -21.98562 -49.44299 36990 ft 466 kts 110°
2026-04-25 17:56 -22.00680 -49.37672 36990 ft 466 kts 110°
2026-04-25 17:57 -22.02782 -49.31079 36985 ft 466 kts 110°
2026-04-25 17:57 -22.04882 -49.24472 36980 ft 466 kts 110°
2026-04-25 17:58 -22.06985 -49.17870 36981 ft 466 kts 110°
2026-04-25 17:58 -22.09074 -49.11302 36980 ft 466 kts 110°
2026-04-25 17:59 -22.11193 -49.04667 36986 ft 467 kts 110°
2026-04-25 17:59 -22.13305 -48.98085 36986 ft 467 kts 110°
2026-04-25 18:00 -22.15419 -48.91438 36992 ft 467 kts 110°
2026-04-25 18:00 -22.17523 -48.84798 36993 ft 467 kts 110°
2026-04-25 18:01 -22.19615 -48.78181 36987 ft 467 kts 110°
2026-04-25 18:01 -22.21691 -48.71601 36986 ft 467 kts 110°
2026-04-25 18:02 -22.23789 -48.64937 36990 ft 466 kts 110°
2026-04-25 18:02 -22.25866 -48.58333 37005 ft 466 kts 110°
2026-04-25 18:03 -22.27938 -48.51747 37020 ft 467 kts 110°
2026-04-25 18:03 -22.30025 -48.45103 37028 ft 468 kts 110°
2026-04-25 18:04 -22.32117 -48.38426 37028 ft 468 kts 110°
2026-04-25 18:04 -22.34166 -48.31867 37027 ft 468 kts 110°
2026-04-25 18:05 -22.36139 -48.25516 36607 ft 472 kts 110°
2026-04-25 18:05 -22.37187 -48.22149 35877 ft 472 kts 110°
2026-04-25 18:05 -22.38231 -48.18795 35211 ft 472 kts 110°
2026-04-25 18:05 -22.39271 -48.15449 34564 ft 471 kts 110°
2026-04-25 18:06 -22.40315 -48.12096 33913 ft 470 kts 110°
2026-04-25 18:06 -22.41356 -48.08749 33259 ft 469 kts 110°
2026-04-25 18:06 -22.42391 -48.05420 32631 ft 469 kts 109°
2026-04-25 18:06 -22.43427 -48.02072 32010 ft 469 kts 110°
2026-04-25 18:07 -22.44453 -47.98763 31369 ft 469 kts 110°
2026-04-25 18:07 -22.45486 -47.95426 30712 ft 470 kts 110°
2026-04-25 18:07 -22.46635 -47.92089 30182 ft 466 kts 115°
2026-04-25 18:07 -22.48047 -47.89000 29732 ft 460 kts 122°
2026-04-25 18:08 -22.49763 -47.86090 29283 ft 453 kts 129°
2026-04-25 18:08 -22.51656 -47.83449 28840 ft 448 kts 133°
2026-04-25 18:08 -22.53647 -47.80823 28383 ft 444 kts 133°
2026-04-25 18:08 -22.55603 -47.78269 27958 ft 441 kts 133°
2026-04-25 18:09 -22.57557 -47.75705 27528 ft 437 kts 133°
2026-04-25 18:09 -22.59467 -47.73181 27123 ft 433 kts 133°
2026-04-25 18:09 -22.61373 -47.70652 26709 ft 429 kts 133°
2026-04-25 18:09 -22.62612 -47.69004 26439 ft 427 kts 132°
2026-04-25 18:10 -22.65101 -47.65684 25890 ft 423 kts 133°
2026-04-25 18:10 -22.66949 -47.63220 25480 ft 419 kts 132°
2026-04-25 18:10 -22.68776 -47.60778 25093 ft 414 kts 132°
2026-04-25 18:10 -22.70585 -47.58360 24688 ft 409 kts 132°
2026-04-25 18:11 -22.72350 -47.56002 24286 ft 405 kts 132°
2026-04-25 18:11 -22.74135 -47.53614 23869 ft 401 kts 132°
2026-04-25 18:11 -22.75872 -47.51291 23459 ft 397 kts 132°
2026-04-25 18:11 -22.77599 -47.48981 23058 ft 393 kts 132°
2026-04-25 18:12 -22.79304 -47.46699 22660 ft 390 kts 132°
2026-04-25 18:12 -22.81010 -47.44413 22264 ft 386 kts 132°
2026-04-25 18:12 -22.82686 -47.42168 21891 ft 383 kts 132°
2026-04-25 18:12 -22.84357 -47.39927 21502 ft 380 kts 132°
2026-04-25 18:13 -22.85997 -47.37728 21107 ft 377 kts 132°
2026-04-25 18:13 -22.87648 -47.35513 20706 ft 375 kts 131°
2026-04-25 18:13 -22.89296 -47.33292 20296 ft 373 kts 131°
2026-04-25 18:14 -22.92524 -47.28930 19496 ft 368 kts 131°
2026-04-25 18:14 -22.94109 -47.26793 19104 ft 365 kts 131°
2026-04-25 18:14 -22.95724 -47.24620 18700 ft 362 kts 131°
2026-04-25 18:14 -22.97301 -47.22498 18313 ft 360 kts 130°
2026-04-25 18:15 -22.98868 -47.20388 17928 ft 357 kts 130°
2026-04-25 18:15 -23.00438 -47.18273 17545 ft 354 kts 131°
2026-04-25 18:15 -23.02152 -47.16399 17148 ft 348 kts 147°
2026-04-25 18:15 -23.04252 -47.15185 16942 ft 333 kts 165°
2026-04-25 18:16 -23.06452 -47.14586 16965 ft 313 kts 172°
2026-04-25 18:16 -23.08535 -47.14151 16983 ft 297 kts 173°
2026-04-25 18:16 -23.12533 -47.13333 17032 ft 290 kts 173°
2026-04-25 18:17 -23.14533 -47.12911 17033 ft 291 kts 173°
2026-04-25 18:17 -23.16532 -47.12479 16971 ft 293 kts 173°
2026-04-25 18:17 -23.18527 -47.12047 16633 ft 293 kts 172°
2026-04-25 18:17 -23.20543 -47.11604 16326 ft 291 kts 172°
2026-04-25 18:18 -23.22532 -47.11165 16013 ft 290 kts 172°
2026-04-25 18:18 -23.24494 -47.10732 15705 ft 288 kts 172°
2026-04-25 18:18 -23.26461 -47.10299 15396 ft 286 kts 172°
2026-04-25 18:18 -23.28398 -47.09874 15090 ft 284 kts 172°
2026-04-25 18:19 -23.30340 -47.09449 14774 ft 282 kts 172°
2026-04-25 18:19 -23.32249 -47.09031 14471 ft 280 kts 172°
2026-04-25 18:19 -23.34164 -47.08612 14164 ft 277 kts 172°
2026-04-25 18:19 -23.36041 -47.08201 13859 ft 275 kts 172°
2026-04-25 18:20 -23.37916 -47.07790 13552 ft 273 kts 172°
2026-04-25 18:20 -23.39777 -47.07382 13242 ft 271 kts 171°
2026-04-25 18:20 -23.41583 -47.06759 12922 ft 273 kts 155°
2026-04-25 18:20 -23.43129 -47.05551 12591 ft 276 kts 137°
2026-04-25 18:21 -23.44303 -47.03905 12271 ft 277 kts 126°
2026-04-25 18:21 -23.45343 -47.02112 11946 ft 277 kts 124°
2026-04-25 18:21 -23.46346 -47.00344 11630 ft 275 kts 124°
2026-04-25 18:21 -23.47354 -46.98581 11306 ft 274 kts 124°
2026-04-25 18:22 -23.48375 -46.96811 10976 ft 273 kts 124°
2026-04-25 18:22 -23.49042 -46.95662 10759 ft 272 kts 124°
2026-04-25 18:22 -23.50392 -46.93337 10335 ft 269 kts 124°
2026-04-25 18:22 -23.51384 -46.91635 10163 ft 261 kts 124°
2026-04-25 18:23 -23.52366 -46.89950 10106 ft 262 kts 124°
2026-04-25 18:23 -23.53345 -46.88271 9994 ft 264 kts 124°
2026-04-25 18:23 -23.54318 -46.86602 9691 ft 261 kts 124°
2026-04-25 18:23 -23.55286 -46.84941 9412 ft 259 kts 124°
2026-04-25 18:24 -23.56303 -46.83391 9142 ft 256 kts 134°
2026-04-25 18:24 -23.57593 -46.82069 9064 ft 254 kts 146°
2026-04-25 18:24 -23.59022 -46.81015 9054 ft 254 kts 150°
2026-04-25 18:24 -23.60572 -46.79963 9051 ft 254 kts 150°
2026-04-25 18:25 -23.62061 -46.78956 9043 ft 254 kts 150°
2026-04-25 18:25 -23.63575 -46.77922 9040 ft 254 kts 150°
2026-04-25 18:25 -23.65065 -46.76899 9037 ft 254 kts 150°
2026-04-25 18:25 -23.66573 -46.75856 9032 ft 254 kts 150°
2026-04-25 18:26 -23.68067 -46.74823 9025 ft 255 kts 150°
2026-04-25 18:26 -23.69573 -46.73780 9025 ft 255 kts 150°
2026-04-25 18:26 -23.71069 -46.72742 9020 ft 255 kts 150°
2026-04-25 18:26 -23.72565 -46.71704 9018 ft 255 kts 150°
2026-04-25 18:27 -23.74087 -46.70649 8998 ft 255 kts 150°
2026-04-25 18:27 -23.75581 -46.69611 8705 ft 256 kts 150°
2026-04-25 18:27 -23.77087 -46.68567 8413 ft 254 kts 150°
2026-04-25 18:27 -23.78570 -46.67536 8129 ft 252 kts 150°
2026-04-25 18:28 -23.80045 -46.66509 7841 ft 253 kts 150°
2026-04-25 18:28 -23.81546 -46.65467 7551 ft 253 kts 150°
2026-04-25 18:28 -23.83028 -46.64437 7268 ft 252 kts 150°
2026-04-25 18:29 -23.85196 -46.61543 6656 ft 252 kts 102°
2026-04-25 18:29 -23.85233 -46.59671 6365 ft 249 kts 75°
2026-04-25 18:30 -23.82982 -46.54662 5571 ft 244 kts 31°
2026-04-25 18:30 -23.81518 -46.53819 5397 ft 234 kts 22°
2026-04-25 18:30 -23.80109 -46.52906 5352 ft 237 kts 31°
2026-04-25 18:30 -23.78698 -46.52008 5202 ft 229 kts 18°
2026-04-25 18:31 -23.77197 -46.51654 5054 ft 208 kts 355°
2026-04-25 18:31 -23.75851 -46.51918 5079 ft 187 kts 337°
2026-04-25 18:31 -23.74798 -46.52586 5020 ft 161 kts 318°
2026-04-25 18:31 -23.74084 -46.53451 4988 ft 152 kts 303°
2026-04-25 18:32 -23.73622 -46.54503 4977 ft 152 kts 288°
2026-04-25 18:32 -23.73357 -46.55610 4981 ft 152 kts 284°
2026-04-25 18:32 -23.73122 -46.56741 4944 ft 152 kts 284°
2026-04-25 18:32 -23.72810 -46.57850 4835 ft 152 kts 294°
2026-04-25 18:33 -23.72236 -46.58818 4719 ft 153 kts 311°
2026-04-25 18:33 -23.71432 -46.59588 4522 ft 153 kts 324°
2026-04-25 18:33 -23.70562 -46.60212 4287 ft 145 kts 327°
2026-04-25 18:33 -23.69723 -46.60786 4068 ft 139 kts 326°
2026-04-25 18:34 -23.68900 -46.61351 3892 ft 138 kts 329°
2026-04-25 18:34 -23.68075 -46.61886 3690 ft 138 kts 328°
2026-04-25 18:34 -23.67262 -46.62434 3466 ft 137 kts 326°
2026-04-25 18:34 -23.66461 -46.62997 3308 ft 137 kts 328°
2026-04-25 18:35 -23.65668 -46.63549 3119 ft 136 kts 324°
2026-04-25 18:35 -23.64853 -46.64114 2957 ft 136 kts 324°
2026-04-25 18:35 -23.64057 -46.64668 2793 ft 135 kts 327°
2026-04-25 18:35 -23.63269 -46.65223 2624 ft 132 kts 325°
2026-04-25 18:36 -23.62664 -46.65651 2605 ft 64 kts 327°
2026-04-25 18:36 -23.62453 -46.65798 2602 ft 27 kts 324°
2026-04-25 18:36 -23.62302 -46.65905 2602 ft 24 kts 326°
2026-04-25 18:36 -23.62225 -46.65960 2602 ft 8 kts 325°
2026-04-25 18:37 -23.62199 -46.65999 2602 ft 4 kts 271°
2026-04-25 18:37 -23.62205 -46.66029 2603 ft 3 kts 250°
2026-04-25 18:37 -23.62214 -46.66044 2603 ft 1 kts 224°
2026-04-25 18:37 -23.62224 -46.66047 2603 ft 2 kts 182°
2026-04-25 18:38 -23.62243 -46.66048 2603 ft 3 kts 181°
2026-04-25 18:38 -23.62270 -46.66046 2603 ft 5 kts 173°
2026-04-25 18:38 -23.62318 -46.66036 2602 ft 8 kts 167°
2026-04-25 18:38 -23.62374 -46.66007 2602 ft 9 kts 149°
2026-04-25 18:39 -23.62433 -46.65966 2602 ft 10 kts 148°
2026-04-25 18:39 -23.62498 -46.65922 2602 ft 11 kts 147°
2026-04-25 18:39 -23.62535 -46.65896 2602 ft 1 kts 147°
2026-04-25 18:39 -23.62543 -46.65891 2602 ft 1 kts 156°
2026-04-25 18:40 -23.62555 -46.65894 2602 ft 1 kts 214°
2026-04-25 18:40 -23.62565 -46.65908 2602 ft 2 kts 235°
2026-04-25 18:40 -23.62569 -46.65915 2602 ft 0 kts 236°
2026-04-25 18:40 -23.62571 -46.65918 2602 ft 0 kts 237°
2026-04-25 18:41 -23.62573 -46.65921 2602 ft 0 kts 237°